Regional Weather Roundup
Issued by NWS

Current Version | Previous Version | Text Only | Print | Product List | Glossary On
Versions: 1 2 3 4 5 6 7 8 9 10 11 12 13 14 15 16 17 18 19 20 21 22 23 24 25 26 27 28 29 30 31 32 33 34 35 36 37 38 39 40 41 42 43 44 45 46 47 48 49 50
000
ASUS45 KTFX 140419
RWRMT
MONTANA HOURLY WEATHER ROUNDUP
NATIONAL WEATHER SERVICE GREAT FALLS MT
1019 PM MDT SUN JUL 13 2014

NOTE: "FAIR" INDICATES FEW OR NO CLOUDS BELOW 12000 FEET WITH NO
SIGNIFICANT WEATHER AND/OR OBSTRUCTIONS TO VISIBILITY.

* THESE STATIONS ARE NOT UNDER NWS QUALITY CONTROL. THEY DO NOT
   REPORT WEATHER SUCH AS PRECIPITATION OR FOG.

MTZ001>007-043-140500-
WEST OF THE DIVIDE
CITY           SKY/WX    TMP DP  RH WIND       PRES   REMARKS
KALISPELL      PTCLDY    75  52  45 N7        30.11R
MISSOULA       MOCLDY    84  39  20 NW8       30.12R
BUTTE          MOCLDY    75  46  36 VRB3      30.31R
MULLAN PASS    CLOUDY    72  46  40 N3        30.33R
* ESSEX        N/A       76  49  39 SW2G9      N/A
* LINCOLN      N/A       79  42  27 NE7G18     N/A
* LOOKOUT PASS N/A       73  53  50 VRB2       N/A
* POLSON       N/A       72  42  34 NE2        N/A
* RONAN APT    MOCLDY    73  55  53 N/A        N/A
* SEELEY LAKE  N/A       79  47  32 SW2G7      N/A
* THOMP F APT  MOCLDY    68  46  45 N2G7       N/A
* YAAK HILL    N/A       76  55  48 N/A        N/A
$$

MTZ008-052>055-140500-
SOUTHWEST MONTANA
CITY           SKY/WX    TMP DP  RH WIND       PRES   REMARKS
BOZEMAN        MOCLDY    72  50  46 SE7       30.23R
W YELLOWSTONE  MOCLDY    61  55  81 CALM      30.38R
* THREE FORKS  MOCLDY    73  43  34 N/A        N/A
* BOULDER HILL N/A       71  41  34 N6         N/A
* MONIDA PASS  N/A       67  45  45 E8         N/A
* RAYNOLDS PAS N/A       66  56  70 N3         N/A
* WHITEHALL    N/A       75  56  52 NE2        N/A
* WISE RIVER   N/A       74  48  40 SE4G9      N/A
$$

MTZ009>010-012-014-046-048-049-054-140500-
EAST SLOPES AND CENTRAL MONTANA
CITY           SKY/WX    TMP DP  RH WIND       PRES   REMARKS
CUT BANK       CLEAR     70  52  53 NE12      30.28R
GREAT FALLS    CLEAR     73  45  37 E7        30.23R
HELENA         PTCLDY    81  45  28 CALM      30.21R
MALMSTROM AFB  CLEAR     70  48  46 E7        30.24R
* CONRAD       CLEAR     70  55  59 N/A        N/A
* DEARBORN     N/A       81  45  28 N9G15      N/A
* EAST GLACIER N/A       63  52  68 SW6        N/A
* MONARCH      N/A       61  34  36 NE7        N/A
* ROGERS PASS  N/A       70  41  35 W2         N/A
* SAINT MARY   N/A       72  52  49 N3G9       N/A
* SWEET GRASS  N/A       73  54  51 NE3        N/A
* WHITE SULPH  N/A       71  39  31 NE6G12     N/A
$$

MTZ011-013-016-021-035-040-045-047-050-051-140500-
NORTH CENTRAL MONTANA
CITY           SKY/WX    TMP DP  RH WIND       PRES   REMARKS
HAVRE          CLEAR     73  52  48 E12       30.22R
LEWISTOWN      CLEAR     70  48  46 SE8       30.28R
* FORT BENTON  CLEAR     75  48  39 NE7       30.23R
* CHESTER      N/A       74  49  41 E4         N/A
* DENTON       N/A       69  44  41 NE9        N/A
* GEYSER       N/A       63  39  41 SE6        N/A
* JUDITH GAP   N/A       66  46  49 NW6        N/A
* LOMA         N/A       75  52  45 NE13       N/A
$$

MTZ017>020-022>027-061-062-140500-
NORTHEAST MONTANA
CITY           SKY/WX    TMP DP  RH WIND       PRES   REMARKS
GLASGOW        CLEAR     61  43  52 NE9       30.21R
GLENDIVE       CLEAR     63  34  34 N9        30.22R
JORDAN         CLEAR     66  45  47 NE6       30.21R
SIDNEY         CLEAR     61  41  48 N9        30.21R
WOLF POINT     CLEAR     63  39  41 N12       30.20R
* BEAVER HILL  N/A       60  37  43 N8         N/A
* CIRCLE       N/A       64  42  45 NE5        N/A
* LINDSAY DVD  N/A       61  38  43 VRB11G17    N/A
* NAVAJO       N/A       57  44  62 N10        N/A
$$

MTZ028>042-056>058-140500-
SOUTHCENTRAL AND SOUTHEAST MONTANA
CITY           SKY/WX    TMP DP  RH WIND       PRES   REMARKS
BAKER          CLEAR     59  45  60 N7        30.20R
BILLINGS       MOCLDY    75  46  36 NE12      30.22R
LIVINGSTON     PTCLDY    75  46  36 E13       30.25R
MILES CITY     CLEAR     72  46  40 NE10      30.18R
* LAUREL APT   PTCLDY    73  45  37 N/A        N/A
* ROUNDUP APT  PTCLDY    73  46  38 N/A        N/A
* ALZADA       N/A       67  49  53 VRB4       N/A
* HYSHAM       N/A       70  44  39 SE2        N/A
* LAME DEER    N/A       66  47  51 NE5        N/A
* REED POINT   N/A       76  43  31 N/A        N/A
* ROSCOE HILL  N/A       71  37  29 SE4        N/A
$$

REGIONAL REPORTS...DAKOTAS
CITY           SKY/WX    TMP DP  RH WIND       PRES   REMARKS
WILLISTON      CLEAR     61  46  58 N9        30.18R
DICKINSON      CLEAR     59  41  51 N10       30.15R
CROSBY         CLOUDY    57  50  78 N8        30.18R
TIOGA          FAIR      50  50 100 N9        30.20R
WATFORD CITY   CLEAR     55  45  69 N3        30.15R
BISMARCK       CLEAR     63  45  52 N10       30.08R
GRAND FORKS    MOCLDY    59  46  62 NW9       29.94S
FARGO          CLOUDY    64  46  52 NW14      29.95S
BUFFALO SD     CLEAR     64  45  50 N12       30.11R
RAPID CITY     CLEAR     64  52  65 N8        30.18R
$$

REGIONAL REPORTS...WYOMING/IDAHO/WASHINGTON
CITY           SKY/WX    TMP DP  RH WIND       PRES   REMARKS
GILLETTE       CLEAR     61  48  62 CALM      30.24R
SHERIDAN       PTCLDY    66  46  49 W8        30.24R
CODY           PTCLDY   N/A N/A N/A N5        30.30R
YELLOWSTONE LA PTCLDY    54  48  80 NW5       30.49R
SALMON         MOCLDY    79  41  26 E6        30.12R
MULLAN PASS    CLOUDY    72  46  40 N3        30.33S
SAND POINT     MOCLDY    72  59  64 CALM      30.04R
SPOKANE        CLOUDY    91  39  16 CALM      30.05R
$$

REGIONAL REPORTS...ALBERTA
CITY           SKY/WX    TMP DP  RH WIND       PRES   REMARKS
CALGARY        FAIR      70  55  59 SE8       30.29R
LETHBRIDGE     PTCLDY    70  63  79 S3        30.24R
EDMONTON       N/A       66  57  73 SE10      30.25R
WATERTON GATE  N/A       63  57  81 NE1        N/A
CARDSTON       N/A       68  57  68 S2         N/A
MILK RIVER     N/A       66  54  65 E6         N/A
$$

REGIONAL REPORTS...SASKATCHEWAN
CITY           SKY/WX    TMP DP  RH WIND       PRES   REMARKS
SWIFT CURRENT  CLEAR     57  45  64 NE10G45   30.27R
REGINA         PTCLDY    54  50  86 N6        30.23R
VAL MARIE      N/A       57  45  64 NE10       N/A
ASSINIBOIA     N/A       54  46  74 N6         N/A
CORONACH       N/A       54  45  72 N6         N/A

$$



USA.gov is the U.S. government's official web portal to all federal, state and local government web resources and services.